This demonstration page uses our WeatherBlox Daily Observations layout. Learn more.

38.88101, -77.10428

Hourly Observations for March 1, 2020

Temp ( °F °C ) Dew Point ( °F °C ) Humidity (%) Winds ( mph kmh ) Pressure ( in mb ) Visibility ( mi km ) Precip ( " mm )
12:52 am 00:52 Clear 33 0.6 12 -11.1 42 42 WNW 9 15 30.19 1022 10 16.0934 0 0
1:52 am 01:52 Clear 32 0 13 -10.6 45 45 NW 8 13 30.2 1023 10 16.0934 0 0
2:52 am 02:52 Mostly Clear 31 -0.6 13 -10.6 47 47 NNW 5 7 30.21 1023 10 16.0934 0 0
3:52 am 03:52 Mostly Clear 31 -0.6 13 -10.6 47 47 WNW 5 7 30.22 1023 10 16.0934 0 0
4:52 am 04:52 Mostly Clear 30 -1.1 14 -10 51 51 W 3 6 30.24 1024 10 16.0934 0 0
5:52 am 05:52 Clear 30 -1.1 16 -8.9 56 56 WSW 3 6 30.25 1024 10 16.0934 0 0
6:52 am 06:52 Sunny 28 -2.2 17 -8.3 63 63 WSW 5 7 30.27 1025 10 16.0934 0 0
7:52 am 07:52 Sunny 32 0 17 -8.3 54 54 SW 6 9 30.29 1026 10 16.0934 0 0
8:52 am 08:52 Sunny 36 2.2 16 -8.9 44 44 W 7 11 30.31 1026 10 16.0934 0 0
9:52 am 09:52 Sunny 40 4.4 14 -10 35 35 SW 9 15 30.3 1026 10 16.0934 0 0
10:52 am 10:52 Sunny 42 5.6 12 -11.1 29 29 WSW 9 15 30.28 1025 10 16.0934 0 0
11:03 am 11:03 Sunny 44 6.7 12 -11.1 27 27 WNW 13 20 30.28 1025 10 16.0934 0 0
11:52 am 11:52 Sunny 45 7.2 11 -11.7 25 25 WSW 9 15 30.27 1025 10 16.0934 0 0
12:52 pm 12:52 Sunny 47 8.3 13 -10.6 25 25 W 8 13 30.24 1024 10 16.0934 0 0
1:52 pm 13:52 Mostly Sunny 49 9.4 14 -10 25 25 W 8 13 30.21 1023 10 16.0934 0 0
2:52 pm 14:52 Partly Cloudy 51 10.6 13 -10.6 22 22 W 6 9 30.17 1022 10 16.0934 0 0
3:52 pm 15:52 Partly Cloudy 50 10 15 -9.4 25 25 VRB 6 9 30.17 1022 10 16.0934 0 0
4:52 pm 16:52 Partly Cloudy 49 9.4 22 -5.6 35 35 S 12 19 30.17 1022 10 16.0934 0 0
5:52 pm 17:52 Partly Cloudy 46 7.8 25 -3.9 44 44 S 7 11 30.17 1022 10 16.0934 0 0
6:52 pm 18:52 Mostly Clear 44 6.7 25 -3.9 47 47 S 8 13 30.17 1022 10 16.0934 0 0
7:52 pm 19:52 Mostly Clear 44 6.7 32 0 63 63 S 5 7 30.18 1022 10 16.0934 0 0
8:52 pm 20:52 Mostly Clear 42 5.6 22 -5.6 45 45 S 8 13 30.17 1022 10 16.0934 0 0
9:52 pm 21:52 Mostly Clear 41 5 24 -4.4 51 51 S 8 13 30.16 1022 10 16.0934 0 0
10:52 pm 22:52 Mostly Clear 40 4.4 27 -2.8 60 60 S 7 11 30.15 1021 10 16.0934 0 0
11:52 pm 23:52 Partly Cloudy 40 4.4 26 -3.3 58 58 S 9 15 30.13 1020 10 16.0934 0 0

Powered by AerisWeather